Date String (YYYY-MM-DD hh:mm:ss) UTC,Instrument flags,absolute air pressure of the measurement (hPa),sample flow rate (lpm),inlet stack bypass flow (lpm),air temperature of the measurement (°C),ambient temperature measured by the external sensor (°C),aerosol sample conditioner tube jacket temperature (°C),OPC LED temperature (°C),internal box temperature (°C),relative humidity of the measurement (%),span deviation,mass concentration of particles derived from Lorenz-Mie calculation of OPC scattering (μg/m³),mass concentration of particles derived from Lorenz-Mie calculation of OPC scattering (μg/m³),mass concentration of particles derived from Lorenz-Mie calculation of OPC scattering (μg/m³)
DateTimeUTC,F1_M11,P_M11,Q1_M11,Q2_M11,T1_M11,T2_M11,T3_M11,T4_M11,T5_M11,U1_M11,ZSPAN_M11,X0_M11,X2_M11,X1_M11
2024-05-10 16:00:00,SystemResetWarning,0837.2,4.99,000.00,026.2,025.7,000.0,034.4,027.9,022.0,0000.0,0006.85,0003.93,0003.66
2024-05-10 16:01:00,SystemResetWarning,0837.1,5.00,000.00,026.2,025.7,000.0,034.4,028.0,021.8,0000.0,0006.82,0003.92,0003.67
2024-05-10 16:02:00,SystemResetWarning,0837.1,5.01,000.00,026.2,025.7,000.0,034.4,028.0,021.4,0000.0,0006.74,0003.91,0003.66
2024-05-10 16:03:00,SystemResetWarning,0837.1,5.01,000.00,026.2,025.7,000.0,034.4,028.0,021.6,0000.0,0007.88,0003.90,0003.65
2024-05-10 16:04:00,SystemResetWarning,0837.1,5.00,000.00,026.2,025.7,000.0,034.4,028.0,021.3,0000.0,0007.96,0003.86,0003.63
2024-05-10 16:05:00,SystemResetWarning,0837.1,4.98,000.00,026.2,025.0,000.0,034.5,027.6,020.5,0000.0,0008.10,0003.84,0003.61
2024-05-10 16:06:00,SystemResetWarning,0837.0,5.01,000.00,025.8,022.7,000.0,034.5,026.4,020.7,0000.0,0007.68,0003.84,0003.59
2024-05-10 16:07:00,SystemResetWarning,0837.0,5.01,000.00,025.3,021.7,000.0,034.5,025.8,021.7,0000.0,0007.41,0003.80,0003.56
2024-05-10 16:08:00,SystemResetWarning,0837.0,4.99,000.00,025.1,022.0,000.0,034.3,025.9,022.2,0000.0,0007.39,0003.78,0003.53
2024-05-10 16:09:00,SystemResetWarning,0837.0,4.99,000.00,025.0,022.4,000.0,034.1,026.1,021.1,0000.0,0007.47,0003.79,0003.52
2024-05-10 16:10:00,SystemResetWarning,0837.0,5.00,000.00,025.0,022.9,000.0,034.0,026.3,021.3,0000.0,0007.52,0003.77,0003.49
2024-05-10 16:11:00,SystemResetWarning,0837.0,5.01,000.00,025.1,023.2,000.0,033.9,026.5,021.7,0000.0,0007.56,0003.76,0003.47
2024-05-10 16:12:00,SystemResetWarning,0837.0,4.99,000.00,025.1,023.5,000.0,033.8,026.6,021.5,0000.0,0007.61,0003.75,0003.44
2024-05-10 16:13:00,SystemResetWarning,0837.0,5.00,000.00,025.1,023.8,000.0,033.7,026.7,022.7,0000.0,0007.59,0003.72,0003.42
2024-05-10 16:14:00,SystemResetWarning,0837.0,5.00,000.00,025.1,024.0,000.0,033.7,026.8,021.8,0000.0,0006.94,0003.74,0003.43
2024-05-10 16:15:00,SystemResetWarning,0836.9,5.00,000.00,025.2,024.2,000.0,033.7,026.9,022.0,0000.0,0007.17,0003.80,0003.45
2024-05-10 16:16:00,SystemResetWarning,0837.0,5.00,000.00,025.2,024.4,000.0,033.7,027.0,022.2,0000.0,0007.35,0003.81,0003.46
2024-05-10 16:17:00,SystemResetWarning,0837.0,5.00,000.00,025.3,024.5,000.0,033.7,027.0,021.8,0000.0,0007.31,0003.82,0003.47
2024-05-10 16:18:00,SystemResetWarning,0837.0,5.00,000.00,025.3,024.6,000.0,033.7,027.1,021.6,0000.0,0007.41,0003.87,0003.49
2024-05-10 16:19:00,SystemResetWarning,0837.0,5.00,000.00,025.3,024.7,000.0,033.7,027.1,021.6,0000.0,0007.46,0003.90,0003.52
2024-05-10 16:20:00,SystemResetWarning,0836.9,5.00,000.00,025.4,024.8,000.0,033.7,027.2,021.8,0000.0,0007.44,0003.92,0003.55
2024-05-10 16:21:00,SystemResetWarning,0837.0,5.00,000.00,025.4,024.8,000.0,033.7,027.2,021.7,0000.0,0007.40,0003.95,0003.58
2024-05-10 16:22:00,SystemResetWarning,0836.9,5.00,000.00,025.4,024.9,000.0,033.7,027.2,021.0,0000.0,0007.39,0003.95,0003.60
2024-05-10 16:23:00,SystemResetWarning,0837.0,5.00,000.00,025.5,025.0,000.0,033.7,027.3,020.9,0000.0,0007.35,0003.97,0003.62
2024-05-10 16:24:00,SystemResetWarning,0836.9,5.00,000.00,025.5,025.0,000.0,033.7,027.3,021.5,0000.0,0007.68,0004.00,0003.65
2024-05-10 16:25:00,SystemResetWarning,0836.9,5.00,000.00,025.6,025.1,000.0,033.8,027.4,021.8,0000.0,0007.71,0003.99,0003.65
2024-05-10 16:26:00,SystemResetWarning,0836.9,5.00,000.00,025.6,025.1,000.0,033.8,027.4,022.2,0000.0,0007.37,0003.98,0003.65
2024-05-10 16:27:00,SystemResetWarning,0837.0,5.00,000.00,025.6,025.2,000.0,033.8,027.5,022.0,0000.0,0006.88,0003.98,0003.66
2024-05-10 16:28:00,SystemResetWarning,0836.9,5.00,000.00,025.7,025.2,000.0,033.8,027.5,021.1,0000.0,0006.91,0003.98,0003.67
2024-05-10 16:29:00,SystemResetWarning,0837.0,5.00,000.00,025.7,025.3,000.0,033.9,027.5,021.0,0000.0,0006.92,0003.97,0003.68
2024-05-10 16:30:00,SystemResetWarning,0837.0,5.00,000.00,025.7,025.3,000.0,033.9,027.6,020.6,0000.0,0006.92,0003.96,0003.68
2024-05-10 16:31:00,SystemResetWarning,0836.9,5.00,000.00,025.8,025.3,000.0,033.9,027.6,021.0,0000.0,0006.88,0003.95,0003.66
2024-05-10 16:32:00,SystemResetWarning,0836.9,5.00,000.00,025.8,025.3,000.0,033.9,027.6,021.3,0000.0,0006.96,0003.94,0003.65
2024-05-10 16:33:00,SystemResetWarning,0836.9,5.00,000.00,025.8,025.4,000.0,034.0,027.7,020.5,0000.0,0006.82,0003.91,0003.63
2024-05-10 16:34:00,SystemResetWarning,0836.9,5.00,000.00,025.8,025.4,000.0,034.0,027.7,020.8,0000.0,0006.80,0003.89,0003.61
2024-05-10 16:35:00,SystemResetWarning,0836.9,5.00,000.00,025.9,025.4,000.0,034.0,027.7,020.6,0000.0,0007.90,0003.90,0003.60
2024-05-10 16:36:00,SystemResetWarning,0837.0,5.00,000.00,025.9,025.4,000.0,034.1,027.7,020.7,0000.0,0007.82,0003.89,0003.59
2024-05-10 16:37:00,SystemResetWarning,0837.0,5.00,000.00,025.9,025.5,000.0,034.1,027.7,020.6,0000.0,0007.93,0003.87,0003.57
2024-05-10 16:38:00,SystemResetWarning,0836.9,5.00,000.00,026.0,025.5,000.0,034.1,027.8,020.8,0000.0,0008.04,0003.87,0003.57
2024-05-10 16:39:00,SystemResetWarning,0837.0,5.00,000.00,026.0,025.5,000.0,034.1,027.8,021.0,0000.0,0008.21,0003.87,0003.57
2024-05-10 16:40:00,SystemResetWarning,0836.9,5.00,000.00,026.0,025.6,000.0,034.1,027.8,021.8,0000.0,0008.86,0003.87,0003.57
2024-05-10 16:41:00,SystemResetWarning,0837.0,5.00,000.00,026.1,025.6,000.0,034.2,027.9,022.1,0000.0,0008.84,0003.88,0003.58
2024-05-10 16:42:00,SystemResetWarning,0837.0,4.99,000.00,026.0,025.3,000.0,034.2,027.7,021.0,0000.0,0008.84,0003.90,0003.61
2024-05-10 16:43:00,SystemResetWarning,0836.9,5.00,000.00,025.7,023.3,000.0,034.3,026.6,021.6,0000.0,0008.93,0003.94,0003.63
2024-05-10 16:44:00,SystemResetWarning,0836.8,5.00,000.00,025.2,021.6,000.0,034.3,025.7,022.5,0000.0,0009.33,0003.97,0003.66
2024-05-10 16:45:00,SystemResetWarning,0836.8,5.01,000.00,025.0,021.8,000.0,034.2,025.6,022.3,0000.0,0009.48,0004.01,0003.71
2024-05-10 16:46:00,SystemResetWarning,0836.8,5.00,000.00,024.9,022.2,000.0,034.0,025.9,022.4,0000.0,0008.46,0004.03,0003.74
2024-05-10 16:47:00,SystemResetWarning,0836.8,5.00,000.00,024.9,022.6,000.0,033.8,026.2,022.6,0000.0,0008.94,0004.09,0003.78
2024-05-10 16:48:00,SystemResetWarning,0836.8,5.01,000.00,024.9,023.0,000.0,033.7,026.3,022.8,0000.0,0009.59,0004.12,0003.80
2024-05-10 16:49:00,SystemResetWarning,0836.7,5.00,000.00,024.9,023.4,000.0,033.6,026.5,022.9,0000.0,0009.73,0004.15,0003.83
2024-05-10 16:50:00,SystemResetWarning,0836.8,4.99,000.00,025.0,023.6,000.0,033.6,026.6,022.6,0000.0,0009.57,0004.16,0003.86
2024-05-10 16:51:00,SystemResetWarning,0836.8,5.00,000.00,025.0,023.9,000.0,033.5,026.7,022.7,0000.0,0009.00,0004.22,0003.89
2024-05-10 16:52:00,SystemResetWarning,0836.8,5.00,000.00,025.1,024.1,000.0,033.5,026.8,023.0,0000.0,0009.05,0004.27,0003.92
2024-05-10 16:53:00,SystemResetWarning,0836.8,5.01,000.00,025.1,024.3,000.0,033.5,026.9,022.9,0000.0,0009.10,0004.29,0003.95
2024-05-10 16:54:00,SystemResetWarning,0836.8,5.01,000.00,025.1,024.4,000.0,033.5,027.0,022.6,0000.0,0009.10,0004.30,0003.98
2024-05-10 16:55:00,SystemResetWarning,0836.8,5.00,000.00,025.2,024.5,000.0,033.5,027.0,022.6,0000.0,0008.81,0004.33,0004.02
2024-05-10 16:56:00,SystemResetWarning,0836.7,4.99,000.00,025.2,024.6,000.0,033.5,027.1,022.8,0000.0,0008.84,0004.38,0004.05
2024-05-10 16:57:00,SystemResetWarning,0836.7,4.99,000.00,025.3,024.7,000.0,033.5,027.1,022.9,0000.0,0009.55,0004.41,0004.07
2024-05-10 16:58:00,SystemResetWarning,0836.7,5.00,000.00,025.3,024.8,000.0,033.6,027.1,021.7,0000.0,0009.00,0004.40,0004.08
2024-05-10 16:59:00,SystemResetWarning,0836.7,5.01,000.00,025.3,024.9,000.0,033.6,027.2,021.8,0000.0,0008.11,0004.37,0004.09
